Location: Podia
(1.5569°N, 32.3469°E)
Time: 03:39:55
(UTC+00:00)

Hubble Space Telescope - Pass Details

Date: 17 May 2021
Orbit: 535 x 539 km, 28.5° (Epoch: 16 June)

Event Time Altitude Azimuth Distance (km) Brightness Sun altitude
Exits shadow 02:27:06 12° 318° (NW) 1,670 3.1 -18.3°
Maximum altitude 02:28:08 13° 334° (NNW) 1,617 3.1 -18.0°
Drops below altitude 10° 02:29:55 10° 360° (N) 1,770 3.7 -17.6°
Sets 02:33:22 0° 30° (NNE) 2,657 5.1 -16.8°
